contact:dominique.lefevre@mio.osupytheas.fr, maurice.libes@osupytheas.fr, didier.mallarino@osupytheas.fr
Project:EMSO http://www.emso-fr.org/EMSO-France
Depth: 2436.0 m
Title:EMSO Ligure Ouest : Data MII capteur CSTAR
DateTime,Latitude,Longitude,Instrument_Serial,Reference_Counts,Signal_Counts,Corrected_Signal_raw_counts,Calculated_Beam_c_inverse_meters,Internal_thermistor_counts
DateTime,Latitude,Longitude,Instrument_Serial,Reference_Counts,Signal_Counts,Corrected_Signal_raw_counts,Calculated_Beam_c_inverse_meters,Internal_thermistor_counts
2019-08-15T00:01:50,42.805,6.029,CST-1368DR,8306,11625,15428,0.048,551
2019-08-15T00:04:52,42.805,6.029,CST-1368DR,8306,11623,15426,0.049,550
2019-08-15T00:07:54,42.805,6.029,CST-1368DR,8306,11625,15429,0.048,551
2019-08-15T00:10:55,42.805,6.029,CST-1368DR,8306,11625,15428,0.048,551
2019-08-15T00:13:57,42.805,6.029,CST-1368DR,8306,11625,15429,0.048,551
2019-08-15T00:16:59,42.805,6.029,CST-1368DR,8306,11625,15429,0.048,551
2019-08-15T00:20:01,42.805,6.029,CST-1368DR,8306,11624,15427,0.049,551
2019-08-15T00:23:03,42.805,6.029,CST-1368DR,8306,11625,15429,0.048,551
2019-08-15T00:26:04,42.805,6.029,CST-1368DR,8306,11626,15429,0.048,551
2019-08-15T00:29:06,42.805,6.029,CST-1368DR,8306,11623,15426,0.049,550
2019-08-15T00:32:08,42.805,6.029,CST-1368DR,8306,11625,15429,0.048,551
2019-08-15T00:35:10,42.805,6.029,CST-1368DR,8306,11621,15424,0.049,551
2019-08-15T00:38:12,42.805,6.029,CST-1368DR,8306,11626,15430,0.048,551
2019-08-15T00:41:14,42.805,6.029,CST-1368DR,8306,11622,15424,0.049,551
2019-08-15T00:44:15,42.805,6.029,CST-1368DR,8306,11624,15427,0.049,550
2019-08-15T00:47:17,42.805,6.029,CST-1368DR,8306,11625,15428,0.048,550
2019-08-15T00:50:19,42.805,6.029,CST-1368DR,8306,11623,15426,0.049,551
2019-08-15T00:53:21,42.805,6.029,CST-1368DR,8306,11625,15428,0.048,551
2019-08-15T00:56:23,42.805,6.029,CST-1368DR,8305,11625,15430,0.048,551
2019-08-15T00:59:25,42.805,6.029,CST-1368DR,8305,11622,15426,0.049,551
2019-08-15T01:02:26,42.805,6.029,CST-1368DR,8305,11624,15429,0.048,550
2019-08-15T01:05:28,42.805,6.029,CST-1368DR,8305,11622,15426,0.049,551
2019-08-15T01:08:30,42.805,6.029,CST-1368DR,8305,11621,15425,0.049,551
2019-08-15T01:11:32,42.805,6.029,CST-1368DR,8305,11623,15428,0.048,551
2019-08-15T01:14:34,42.805,6.029,CST-1368DR,8305,11624,15428,0.048,551
2019-08-15T01:17:35,42.805,6.029,CST-1368DR,8305,11623,15427,0.049,551
2019-08-15T01:20:37,42.805,6.029,CST-1368DR,8305,11622,15426,0.049,551
2019-08-15T01:23:39,42.805,6.029,CST-1368DR,8305,11622,15426,0.049,551
2019-08-15T01:26:41,42.805,6.029,CST-1368DR,8305,11624,15429,0.048,551
2019-08-15T01:29:42,42.805,6.029,CST-1368DR,8305,11624,15428,0.048,551
2019-08-15T01:32:44,42.805,6.029,CST-1368DR,8305,11623,15428,0.048,551
2019-08-15T01:35:46,42.805,6.029,CST-1368DR,8305,11623,15428,0.048,551
2019-08-15T01:38:48,42.805,6.029,CST-1368DR,8305,11624,15429,0.048,551
2019-08-15T01:41:49,42.805,6.029,CST-1368DR,8305,11621,15424,0.049,551
2019-08-15T01:44:51,42.805,6.029,CST-1368DR,8305,11624,15428,0.048,551
2019-08-15T01:47:53,42.805,6.029,CST-1368DR,8305,11622,15426,0.049,551
2019-08-15T01:50:54,42.805,6.029,CST-1368DR,8304,11623,15429,0.048,551
2019-08-15T01:53:56,42.805,6.029,CST-1368DR,8304,11621,15427,0.049,551
2019-08-15T01:56:57,42.805,6.029,CST-1368DR,8304,11623,15429,0.048,551
2019-08-15T01:59:59,42.805,6.029,CST-1368DR,8304,11619,15424,0.049,551
2019-08-15T02:03:01,42.805,6.029,CST-1368DR,8304,11621,15427,0.049,551
2019-08-15T02:06:02,42.805,6.029,CST-1368DR,8304,11621,15427,0.049,550
2019-08-15T02:09:04,42.805,6.029,CST-1368DR,8304,11622,15428,0.048,551
2019-08-15T02:12:06,42.805,6.029,CST-1368DR,8304,11622,15427,0.049,551
2019-08-15T02:15:07,42.805,6.029,CST-1368DR,8304,11620,15425,0.049,551
2019-08-15T02:18:09,42.805,6.029,CST-1368DR,8304,11621,15427,0.049,551
2019-08-15T02:21:11,42.805,6.029,CST-1368DR,8304,11621,15427,0.049,551
2019-08-15T02:24:12,42.805,6.029,CST-1368DR,8304,11621,15427,0.049,551
2019-08-15T02:27:14,42.805,6.029,CST-1368DR,8304,11621,15427,0.049,551
2019-08-15T02:30:15,42.805,6.029,CST-1368DR,8304,11619,15424,0.049,551
2019-08-15T02:33:17,42.805,6.029,CST-1368DR,8304,11622,15428,0.048,551
2019-08-15T02:36:19,42.805,6.029,CST-1368DR,8304,11620,15426,0.049,551
2019-08-15T02:39:20,42.805,6.029,CST-1368DR,8303,11603,15405,0.054,551
2019-08-15T02:42:22,42.805,6.029,CST-1368DR,8304,11621,15427,0.049,551
2019-08-15T02:45:24,42.805,6.029,CST-1368DR,8304,11622,15428,0.048,551
2019-08-15T02:48:25,42.805,6.029,CST-1368DR,8303,11620,15427,0.049,551
2019-08-15T02:51:27,42.805,6.029,CST-1368DR,8303,11620,15427,0.049,551
2019-08-15T02:54:28,42.805,6.029,CST-1368DR,8303,11620,15427,0.049,551
2019-08-15T02:57:30,42.805,6.029,CST-1368DR,8303,11619,15425,0.049,551
2019-08-15T03:00:32,42.805,6.029,CST-1368DR,8303,11620,15427,0.049,551
2019-08-15T03:03:33,42.805,6.029,CST-1368DR,8303,11614,15419,0.051,551
2019-08-15T03:06:35,42.805,6.029,CST-1368DR,8303,11620,15427,0.049,551
2019-08-15T03:09:37,42.805,6.029,CST-1368DR,8303,11621,15428,0.048,551
2019-08-15T03:12:38,42.805,6.029,CST-1368DR,8303,11618,15424,0.049,551
2019-08-15T03:15:40,42.805,6.029,CST-1368DR,8303,11621,15428,0.048,551
2019-08-15T03:18:42,42.805,6.029,CST-1368DR,8303,11615,15420,0.051,551
2019-08-15T03:21:43,42.805,6.029,CST-1368DR,8303,11621,15428,0.048,550
2019-08-15T03:24:45,42.805,6.029,CST-1368DR,8303,11620,15427,0.049,551
2019-08-15T03:27:47,42.805,6.029,CST-1368DR,8303,11619,15426,0.049,551
2019-08-15T03:30:48,42.805,6.029,CST-1368DR,8303,11618,15424,0.049,551
2019-08-15T03:33:50,42.805,6.029,CST-1368DR,8303,11621,15428,0.048,551
2019-08-15T03:36:51,42.805,6.029,CST-1368DR,8303,11621,15428,0.048,551
2019-08-15T03:39:53,42.805,6.029,CST-1368DR,8303,11619,15426,0.049,551
2019-08-15T03:42:55,42.805,6.029,CST-1368DR,8303,11615,15420,0.051,551
2019-08-15T03:45:56,42.805,6.029,CST-1368DR,8303,11616,15422,0.050,551
2019-08-15T03:48:58,42.805,6.029,CST-1368DR,8303,11618,15425,0.049,551
2019-08-15T03:52:00,42.805,6.029,CST-1368DR,8303,11618,15424,0.049,551
2019-08-15T03:55:01,42.805,6.029,CST-1368DR,8302,11618,15426,0.049,550
2019-08-15T03:58:03,42.805,6.029,CST-1368DR,8303,11617,15423,0.050,551
2019-08-15T04:01:05,42.805,6.029,CST-1368DR,8303,11618,15424,0.049,551
2019-08-15T04:04:06,42.805,6.029,CST-1368DR,8302,11620,15428,0.048,551
2019-08-15T04:07:08,42.805,6.029,CST-1368DR,8302,11620,15428,0.048,551
2019-08-15T04:10:10,42.805,6.029,CST-1368DR,8302,11616,15424,0.049,551
2019-08-15T04:13:11,42.805,6.029,CST-1368DR,8302,11620,15429,0.048,551
2019-08-15T04:16:13,42.805,6.029,CST-1368DR,8302,11620,15429,0.048,551
2019-08-15T04:19:14,42.805,6.029,CST-1368DR,8302,11619,15427,0.049,551
2019-08-15T04:22:16,42.805,6.029,CST-1368DR,8302,11618,15425,0.049,550
2019-08-15T04:25:18,42.805,6.029,CST-1368DR,8302,11618,15426,0.049,551
2019-08-15T04:28:20,42.805,6.029,CST-1368DR,8302,11619,15427,0.049,551
2019-08-15T04:31:21,42.805,6.029,CST-1368DR,8302,11619,15427,0.049,551
2019-08-15T04:34:23,42.805,6.029,CST-1368DR,8302,11619,15428,0.048,550
2019-08-15T04:37:25,42.805,6.029,CST-1368DR,8302,11619,15427,0.049,551
2019-08-15T04:40:26,42.805,6.029,CST-1368DR,8302,11615,15422,0.050,551
2019-08-15T04:43:28,42.805,6.029,CST-1368DR,8302,11619,15427,0.049,551
2019-08-15T04:46:30,42.805,6.029,CST-1368DR,8302,11617,15425,0.049,550
2019-08-15T04:49:31,42.805,6.029,CST-1368DR,8302,11617,15425,0.049,551
2019-08-15T04:52:33,42.805,6.029,CST-1368DR,8302,11616,15423,0.050,551
2019-08-15T04:55:34,42.805,6.029,CST-1368DR,8302,11618,15426,0.049,551
2019-08-15T04:58:36,42.805,6.029,CST-1368DR,8302,11617,15425,0.049,551
2019-08-15T05:01:38,42.805,6.029,CST-1368DR,8302,11617,15425,0.049,551
2019-08-15T05:04:39,42.805,6.029,CST-1368DR,8302,11617,15425,0.049,551
2019-08-15T05:07:41,42.805,6.029,CST-1368DR,8302,11618,15426,0.049,551
2019-08-15T05:10:43,42.805,6.029,CST-1368DR,8302,11616,15423,0.050,551
2019-08-15T05:13:44,42.805,6.029,CST-1368DR,8302,11619,15427,0.049,551
2019-08-15T05:16:46,42.805,6.029,CST-1368DR,8301,11618,15428,0.048,551
2019-08-15T05:19:48,42.805,6.029,CST-1368DR,8301,11619,15429,0.048,551
2019-08-15T05:22:49,42.805,6.029,CST-1368DR,8301,11619,15429,0.048,551
2019-08-15T05:25:51,42.805,6.029,CST-1368DR,8301,11619,15429,0.048,551
2019-08-15T05:28:52,42.805,6.029,CST-1368DR,8301,11609,15415,0.052,551
2019-08-15T05:31:54,42.805,6.029,CST-1368DR,8301,11616,15426,0.049,550
2019-08-15T05:34:56,42.805,6.029,CST-1368DR,8301,11614,15422,0.050,551
2019-08-15T05:37:57,42.805,6.029,CST-1368DR,8301,11619,15429,0.048,551
2019-08-15T05:40:59,42.805,6.029,CST-1368DR,8301,11618,15428,0.048,551
2019-08-15T05:44:01,42.805,6.029,CST-1368DR,8301,11617,15426,0.049,551
2019-08-15T05:47:02,42.805,6.029,CST-1368DR,8301,11618,15428,0.048,551
2019-08-15T05:50:04,42.805,6.029,CST-1368DR,8301,11618,15428,0.048,551
2019-08-15T05:53:06,42.805,6.029,CST-1368DR,8301,11617,15426,0.049,551
2019-08-15T05:56:07,42.805,6.029,CST-1368DR,8301,11615,15424,0.049,551
2019-08-15T05:59:09,42.805,6.029,CST-1368DR,8301,11617,15426,0.049,551
2019-08-15T06:02:10,42.805,6.029,CST-1368DR,8301,11618,15428,0.048,551
2019-08-15T06:05:12,42.805,6.029,CST-1368DR,8301,11618,15428,0.048,551
2019-08-15T06:08:14,42.805,6.029,CST-1368DR,8301,11612,15420,0.051,551
2019-08-15T06:11:15,42.805,6.029,CST-1368DR,8301,11618,15428,0.048,551
2019-08-15T06:14:17,42.805,6.029,CST-1368DR,8301,11617,15427,0.049,551
2019-08-15T06:17:19,42.805,6.029,CST-1368DR,8301,11613,15422,0.050,551
2019-08-15T06:20:20,42.805,6.029,CST-1368DR,8301,11617,15427,0.049,551
2019-08-15T06:23:22,42.805,6.029,CST-1368DR,8301,11616,15425,0.049,551
2019-08-15T06:26:24,42.805,6.029,CST-1368DR,8301,11617,15427,0.049,551
2019-08-15T06:29:25,42.805,6.029,CST-1368DR,8301,11617,15427,0.049,551
2019-08-15T06:32:27,42.805,6.029,CST-1368DR,8300,11617,15428,0.048,551
2019-08-15T06:35:29,42.805,6.029,CST-1368DR,8300,11617,15428,0.048,551
2019-08-15T06:38:30,42.805,6.029,CST-1368DR,8300,11617,15429,0.048,551
2019-08-15T06:41:32,42.805,6.029,CST-1368DR,8300,11616,15427,0.049,551
2019-08-15T06:44:34,42.805,6.029,CST-1368DR,8300,11618,15429,0.048,550
2019-08-15T06:47:35,42.805,6.029,CST-1368DR,8300,11615,15426,0.049,551
2019-08-15T06:50:37,42.805,6.029,CST-1368DR,8300,11616,15426,0.049,551
2019-08-15T06:53:38,42.805,6.029,CST-1368DR,8300,11618,15429,0.048,551
2019-08-15T06:56:40,42.805,6.029,CST-1368DR,8300,11616,15427,0.049,551
2019-08-15T06:59:42,42.805,6.029,CST-1368DR,8300,11617,15428,0.048,551
2019-08-15T07:02:43,42.805,6.029,CST-1368DR,8300,11616,15426,0.049,551
2019-08-15T07:05:45,42.805,6.029,CST-1368DR,8300,11616,15427,0.049,551
2019-08-15T07:08:47,42.805,6.029,CST-1368DR,8300,11616,15427,0.049,551
2019-08-15T07:11:48,42.805,6.029,CST-1368DR,8300,11615,15426,0.049,550
2019-08-15T07:14:50,42.805,6.029,CST-1368DR,8300,11614,15424,0.049,551
2019-08-15T07:17:52,42.805,6.029,CST-1368DR,8300,11614,15424,0.049,551
2019-08-15T07:20:53,42.805,6.029,CST-1368DR,8300,11615,15425,0.049,551
2019-08-15T07:23:55,42.805,6.029,CST-1368DR,8300,11614,15425,0.049,551
2019-08-15T07:26:57,42.805,6.029,CST-1368DR,8300,11617,15428,0.048,551
2019-08-15T07:29:58,42.805,6.029,CST-1368DR,8300,11616,15427,0.049,550
2019-08-15T07:33:00,42.805,6.029,CST-1368DR,8300,11615,15426,0.049,551
2019-08-15T07:36:01,42.805,6.029,CST-1368DR,8300,11616,15427,0.049,550
2019-08-15T07:39:03,42.805,6.029,CST-1368DR,8300,11616,15426,0.049,551
2019-08-15T07:42:05,42.805,6.029,CST-1368DR,8300,11615,15426,0.049,551
2019-08-15T07:45:06,42.805,6.029,CST-1368DR,8300,11616,15426,0.049,550
2019-08-15T07:48:08,42.805,6.029,CST-1368DR,8300,11616,15427,0.049,551
2019-08-15T07:51:10,42.805,6.029,CST-1368DR,8300,11614,15424,0.049,551
2019-08-15T07:54:11,42.805,6.029,CST-1368DR,8300,11614,15424,0.049,550
2019-08-15T07:57:13,42.805,6.029,CST-1368DR,8300,11615,15425,0.049,551
2019-08-15T08:00:15,42.805,6.029,CST-1368DR,8299,11613,15424,0.049,551
2019-08-15T08:03:16,42.805,6.029,CST-1368DR,8299,11616,15428,0.048,551
2019-08-15T08:06:18,42.805,6.029,CST-1368DR,8299,11616,15429,0.048,551
2019-08-15T08:09:19,42.805,6.029,CST-1368DR,8299,11616,15428,0.048,551
2019-08-15T08:12:21,42.805,6.029,CST-1368DR,8299,11615,15428,0.048,551
2019-08-15T08:15:23,42.805,6.029,CST-1368DR,8299,11615,15428,0.048,551
2019-08-15T08:18:24,42.805,6.029,CST-1368DR,8299,11616,15429,0.048,551
2019-08-15T08:21:26,42.805,6.029,CST-1368DR,8299,11615,15427,0.049,551
2019-08-15T08:24:28,42.805,6.029,CST-1368DR,8299,11615,15427,0.049,551
2019-08-15T08:27:29,42.805,6.029,CST-1368DR,8299,11615,15428,0.048,551
2019-08-15T08:30:31,42.805,6.029,CST-1368DR,8299,11615,15427,0.049,551
2019-08-15T08:33:33,42.805,6.029,CST-1368DR,8299,11615,15427,0.049,551
2019-08-15T08:36:34,42.805,6.029,CST-1368DR,8299,11614,15426,0.049,551
2019-08-15T08:39:36,42.805,6.029,CST-1368DR,8299,11614,15426,0.049,551
2019-08-15T08:42:37,42.805,6.029,CST-1368DR,8299,11612,15423,0.050,551
2019-08-15T08:45:39,42.805,6.029,CST-1368DR,8299,11615,15427,0.049,551
2019-08-15T08:48:41,42.805,6.029,CST-1368DR,8299,11614,15426,0.049,551
2019-08-15T08:51:42,42.805,6.029,CST-1368DR,8299,11614,15426,0.049,551
2019-08-15T08:54:44,42.805,6.029,CST-1368DR,8299,11615,15427,0.049,550
2019-08-15T08:57:46,42.805,6.029,CST-1368DR,8299,11615,15427,0.049,551
2019-08-15T09:00:48,42.805,6.029,CST-1368DR,8299,11614,15426,0.049,551
2019-08-15T09:03:50,42.805,6.029,CST-1368DR,8299,11614,15426,0.049,551
2019-08-15T09:06:51,42.805,6.029,CST-1368DR,8299,11615,15427,0.049,551
2019-08-15T09:09:53,42.805,6.029,CST-1368DR,8299,11614,15426,0.049,551
2019-08-15T09:12:55,42.805,6.029,CST-1368DR,8299,11616,15428,0.048,551
2019-08-15T09:15:56,42.805,6.029,CST-1368DR,8299,11613,15425,0.049,551
2019-08-15T09:18:58,42.805,6.029,CST-1368DR,8299,11613,15425,0.049,551
2019-08-15T09:22:00,42.805,6.029,CST-1368DR,8299,11608,15418,0.051,550
2019-08-15T09:25:01,42.805,6.029,CST-1368DR,8299,11616,15428,0.048,551
2019-08-15T09:28:03,42.805,6.029,CST-1368DR,8299,11615,15427,0.049,551
2019-08-15T09:31:05,42.805,6.029,CST-1368DR,8299,11614,15426,0.049,551
2019-08-15T09:34:06,42.805,6.029,CST-1368DR,8299,11615,15428,0.048,551
2019-08-15T09:37:08,42.805,6.029,CST-1368DR,8299,11614,15426,0.049,551
2019-08-15T09:40:10,42.805,6.029,CST-1368DR,8299,11615,15427,0.049,551
2019-08-15T09:43:11,42.805,6.029,CST-1368DR,8298,11615,15429,0.048,551
2019-08-15T09:46:13,42.805,6.029,CST-1368DR,8299,11615,15427,0.049,551
2019-08-15T09:49:15,42.805,6.029,CST-1368DR,8299,11614,15426,0.049,551
2019-08-15T09:52:16,42.805,6.029,CST-1368DR,8298,11614,15427,0.049,551
2019-08-15T09:55:18,42.805,6.029,CST-1368DR,8298,11616,15430,0.048,551
2019-08-15T09:58:19,42.805,6.029,CST-1368DR,8298,11614,15428,0.048,551
2019-08-15T10:01:21,42.805,6.029,CST-1368DR,8298,11610,15422,0.050,551
2019-08-15T10:04:23,42.805,6.029,CST-1368DR,8298,11611,15424,0.049,551
2019-08-15T10:07:24,42.805,6.029,CST-1368DR,8298,11611,15423,0.050,551
2019-08-15T10:10:26,42.805,6.029,CST-1368DR,8298,11605,15416,0.052,551
2019-08-15T10:13:28,42.805,6.029,CST-1368DR,8298,11613,15426,0.049,551
2019-08-15T10:16:29,42.805,6.029,CST-1368DR,8298,11612,15425,0.049,551
2019-08-15T10:19:31,42.805,6.029,CST-1368DR,8298,11615,15429,0.048,550
2019-08-15T10:22:32,42.805,6.029,CST-1368DR,8298,11613,15426,0.049,551
2019-08-15T10:25:34,42.805,6.029,CST-1368DR,8298,11615,15429,0.048,550
2019-08-15T10:28:36,42.805,6.029,CST-1368DR,8298,11613,15427,0.049,551
2019-08-15T10:31:37,42.805,6.029,CST-1368DR,8298,11613,15427,0.049,551
2019-08-15T10:34:39,42.805,6.029,CST-1368DR,8298,11614,15428,0.048,551
2019-08-15T10:37:41,42.805,6.029,CST-1368DR,8298,11612,15425,0.049,551
2019-08-15T10:40:42,42.805,6.029,CST-1368DR,8298,11614,15427,0.049,550
2019-08-15T10:43:44,42.805,6.029,CST-1368DR,8298,11611,15423,0.050,551
2019-08-15T10:46:46,42.805,6.029,CST-1368DR,8298,11610,15422,0.050,551
2019-08-15T10:49:47,42.805,6.029,CST-1368DR,8298,11611,15424,0.049,551
2019-08-15T10:52:49,42.805,6.029,CST-1368DR,8298,11614,15427,0.049,551
2019-08-15T10:55:51,42.805,6.029,CST-1368DR,8298,11614,15428,0.048,551
2019-08-15T10:58:52,42.805,6.029,CST-1368DR,8298,11614,15427,0.049,551
2019-08-15T11:01:54,42.805,6.029,CST-1368DR,8298,11608,15419,0.051,551
2019-08-15T11:04:55,42.805,6.029,CST-1368DR,8298,11614,15427,0.049,551
2019-08-15T11:07:57,42.805,6.029,CST-1368DR,8298,11614,15428,0.048,550
2019-08-15T11:10:59,42.805,6.029,CST-1368DR,8297,11614,15429,0.048,551
2019-08-15T11:14:00,42.805,6.029,CST-1368DR,8297,11613,15427,0.049,551
2019-08-15T11:17:02,42.805,6.029,CST-1368DR,8298,11614,15428,0.048,551
2019-08-15T11:20:04,42.805,6.029,CST-1368DR,8297,11612,15426,0.049,551
2019-08-15T11:23:05,42.805,6.029,CST-1368DR,8297,11607,15420,0.051,551
2019-08-15T11:26:07,42.805,6.029,CST-1368DR,8297,11614,15429,0.048,551
2019-08-15T11:29:09,42.805,6.029,CST-1368DR,8297,11604,15416,0.052,551
2019-08-15T11:32:10,42.805,6.029,CST-1368DR,8297,11612,15427,0.049,551
2019-08-15T11:35:12,42.805,6.029,CST-1368DR,8297,11612,15426,0.049,551
2019-08-15T11:38:13,42.805,6.029,CST-1368DR,8297,11612,15427,0.049,551
2019-08-15T11:41:15,42.805,6.029,CST-1368DR,8297,11612,15427,0.049,551
2019-08-15T11:44:17,42.805,6.029,CST-1368DR,8297,11612,15426,0.049,551
2019-08-15T11:47:19,42.805,6.029,CST-1368DR,8297,11613,15427,0.049,550
2019-08-15T11:50:20,42.805,6.029,CST-1368DR,8297,11612,15427,0.049,551
2019-08-15T11:53:22,42.805,6.029,CST-1368DR,8297,11612,15426,0.049,551
2019-08-15T11:56:24,42.805,6.029,CST-1368DR,8297,11611,15425,0.049,551
2019-08-15T11:59:25,42.805,6.029,CST-1368DR,8297,11612,15426,0.049,551
2019-08-15T12:02:27,42.805,6.029,CST-1368DR,8297,11613,15428,0.048,550
2019-08-15T12:05:29,42.805,6.029,CST-1368DR,8297,11613,15427,0.049,550
2019-08-15T12:08:30,42.805,6.029,CST-1368DR,8297,11614,15429,0.048,550
2019-08-15T12:11:32,42.805,6.029,CST-1368DR,8297,11612,15426,0.049,551
2019-08-15T12:14:33,42.805,6.029,CST-1368DR,8297,11612,15426,0.049,550
2019-08-15T12:17:35,42.805,6.029,CST-1368DR,8297,11612,15427,0.049,551
2019-08-15T12:20:37,42.805,6.029,CST-1368DR,8297,11612,15427,0.049,551
2019-08-15T12:23:38,42.805,6.029,CST-1368DR,8297,11612,15426,0.049,550
2019-08-15T12:26:40,42.805,6.029,CST-1368DR,8297,11614,15429,0.048,551
2019-08-15T12:29:42,42.805,6.029,CST-1368DR,8297,11613,15428,0.048,550
2019-08-15T12:32:43,42.805,6.029,CST-1368DR,8297,11613,15428,0.048,551
2019-08-15T12:35:45,42.805,6.029,CST-1368DR,8297,11612,15427,0.049,551
2019-08-15T12:38:46,42.805,6.029,CST-1368DR,8297,11611,15426,0.049,551
2019-08-15T12:41:48,42.805,6.029,CST-1368DR,8297,11611,15425,0.049,551
2019-08-15T12:44:50,42.805,6.029,CST-1368DR,8297,11613,15427,0.049,550
2019-08-15T12:47:51,42.805,6.029,CST-1368DR,8297,11612,15427,0.049,551
2019-08-15T12:50:53,42.805,6.029,CST-1368DR,8297,11608,15422,0.050,551
2019-08-15T12:53:55,42.805,6.029,CST-1368DR,8297,11613,15428,0.048,551
2019-08-15T12:56:56,42.805,6.029,CST-1368DR,8296,11610,15426,0.049,550
2019-08-15T12:59:58,42.805,6.029,CST-1368DR,8297,11610,15423,0.050,551
2019-08-15T13:03:00,42.805,6.029,CST-1368DR,8297,11609,15423,0.050,551
2019-08-15T13:06:01,42.805,6.029,CST-1368DR,8296,11611,15426,0.049,551
2019-08-15T13:09:03,42.805,6.029,CST-1368DR,8296,11611,15426,0.049,551
2019-08-15T13:12:04,42.805,6.029,CST-1368DR,8296,11610,15426,0.049,551
2019-08-15T13:15:06,42.805,6.029,CST-1368DR,8296,11612,15428,0.048,551
2019-08-15T13:18:08,42.805,6.029,CST-1368DR,8297,11611,15426,0.049,551
2019-08-15T13:21:09,42.805,6.029,CST-1368DR,8296,11611,15427,0.049,551
2019-08-15T13:24:11,42.805,6.029,CST-1368DR,8296,11609,15424,0.049,551
2019-08-15T13:27:13,42.805,6.029,CST-1368DR,8296,11612,15428,0.048,551
2019-08-15T13:30:14,42.805,6.029,CST-1368DR,8296,11611,15427,0.049,551
2019-08-15T13:33:16,42.805,6.029,CST-1368DR,8296,11610,15426,0.049,551
2019-08-15T13:36:18,42.805,6.029,CST-1368DR,8296,11610,15425,0.049,551
2019-08-15T13:39:19,42.805,6.029,CST-1368DR,8296,11609,15424,0.049,551
2019-08-15T13:42:21,42.805,6.029,CST-1368DR,8296,11611,15426,0.049,551
2019-08-15T13:45:23,42.805,6.029,CST-1368DR,8296,11609,15424,0.049,551
2019-08-15T13:48:24,42.805,6.029,CST-1368DR,8296,11610,15425,0.049,551
2019-08-15T13:51:26,42.805,6.029,CST-1368DR,8296,11610,15426,0.049,550
2019-08-15T13:54:27,42.805,6.029,CST-1368DR,8296,11610,15425,0.049,551
2019-08-15T13:57:29,42.805,6.029,CST-1368DR,8296,11610,15426,0.049,551
2019-08-15T14:00:31,42.805,6.029,CST-1368DR,8296,11611,15426,0.049,551
2019-08-15T14:03:33,42.805,6.029,CST-1368DR,8296,11610,15426,0.049,551
2019-08-15T14:06:34,42.805,6.029,CST-1368DR,8296,11608,15423,0.050,551
2019-08-15T14:09:36,42.805,6.029,CST-1368DR,8296,11608,15423,0.050,550
2019-08-15T14:12:37,42.805,6.029,CST-1368DR,8296,11609,15424,0.049,551
2019-08-15T14:15:39,42.805,6.029,CST-1368DR,8296,11608,15423,0.050,551
2019-08-15T14:18:41,42.805,6.029,CST-1368DR,8296,11610,15426,0.049,550
2019-08-15T14:21:42,42.805,6.029,CST-1368DR,8296,11610,15426,0.049,551
2019-08-15T14:24:44,42.805,6.029,CST-1368DR,8296,11611,15427,0.049,551
2019-08-15T14:27:47,42.805,6.029,CST-1368DR,8296,11610,15425,0.049,551
2019-08-15T14:30:48,42.805,6.029,CST-1368DR,8296,11606,15421,0.050,551
2019-08-15T14:33:50,42.805,6.029,CST-1368DR,8296,11610,15425,0.049,551
2019-08-15T14:36:52,42.805,6.029,CST-1368DR,8296,11608,15422,0.050,551
2019-08-15T14:39:53,42.805,6.029,CST-1368DR,8295,11609,15426,0.049,551
2019-08-15T14:42:55,42.805,6.029,CST-1368DR,8296,11609,15424,0.049,551
2019-08-15T14:45:57,42.805,6.029,CST-1368DR,8296,11610,15425,0.049,551
2019-08-15T14:48:58,42.805,6.029,CST-1368DR,8295,11604,15420,0.051,551
2019-08-15T14:52:00,42.805,6.029,CST-1368DR,8295,11606,15422,0.050,551
2019-08-15T14:55:02,42.805,6.029,CST-1368DR,8295,11609,15426,0.049,551
2019-08-15T14:58:03,42.805,6.029,CST-1368DR,8295,11607,15423,0.050,551
2019-08-15T15:01:05,42.805,6.029,CST-1368DR,8295,11607,15423,0.050,551
2019-08-15T15:04:07,42.805,6.029,CST-1368DR,8295,11609,15426,0.049,551
2019-08-15T15:07:09,42.805,6.029,CST-1368DR,8295,11608,15425,0.049,550
2019-08-15T15:10:10,42.805,6.029,CST-1368DR,8295,11611,15428,0.048,551
2019-08-15T15:13:12,42.805,6.029,CST-1368DR,8295,11609,15426,0.049,551
2019-08-15T15:16:14,42.805,6.029,CST-1368DR,8295,11609,15426,0.049,551
2019-08-15T15:19:15,42.805,6.029,CST-1368DR,8295,11607,15423,0.050,550
2019-08-15T15:22:17,42.805,6.029,CST-1368DR,8295,11607,15424,0.049,551
2019-08-15T15:25:19,42.805,6.029,CST-1368DR,8295,11608,15424,0.049,551
2019-08-15T15:28:20,42.805,6.029,CST-1368DR,8295,11609,15426,0.049,551
2019-08-15T15:31:22,42.805,6.029,CST-1368DR,8295,11607,15424,0.049,551
2019-08-15T15:34:23,42.805,6.029,CST-1368DR,8295,11608,15424,0.049,551
2019-08-15T15:37:25,42.805,6.029,CST-1368DR,8295,11609,15426,0.049,550
2019-08-15T15:40:27,42.805,6.029,CST-1368DR,8295,11603,15419,0.051,551
2019-08-15T15:43:28,42.805,6.029,CST-1368DR,8295,11608,15425,0.049,551
2019-08-15T15:46:30,42.805,6.029,CST-1368DR,8295,11607,15424,0.049,551
2019-08-15T15:49:32,42.805,6.029,CST-1368DR,8295,11608,15425,0.049,551
2019-08-15T15:52:33,42.805,6.029,CST-1368DR,8295,11607,15423,0.050,551
2019-08-15T15:55:35,42.805,6.029,CST-1368DR,8295,11607,15424,0.049,551
2019-08-15T15:58:37,42.805,6.029,CST-1368DR,8295,11608,15425,0.049,551
2019-08-15T16:01:38,42.805,6.029,CST-1368DR,8295,11608,15425,0.049,550
2019-08-15T16:04:40,42.805,6.029,CST-1368DR,8295,11606,15423,0.050,551
2019-08-15T16:07:41,42.805,6.029,CST-1368DR,8295,11606,15423,0.050,551
2019-08-15T16:10:43,42.805,6.029,CST-1368DR,8295,11608,15425,0.049,551
2019-08-15T16:13:45,42.805,6.029,CST-1368DR,8295,11606,15422,0.050,551
2019-08-15T16:16:46,42.805,6.029,CST-1368DR,8295,11608,15425,0.049,550
2019-08-15T16:19:48,42.805,6.029,CST-1368DR,8295,11603,15418,0.051,550
2019-08-15T16:22:50,42.805,6.029,CST-1368DR,8295,11604,15420,0.051,551
2019-08-15T16:25:51,42.805,6.029,CST-1368DR,8295,11607,15423,0.050,551
2019-08-15T16:28:53,42.805,6.029,CST-1368DR,8295,11608,15425,0.049,551
2019-08-15T16:31:55,42.805,6.029,CST-1368DR,8295,11607,15424,0.049,551
2019-08-15T16:34:56,42.805,6.029,CST-1368DR,8294,11607,15426,0.049,551
2019-08-15T16:37:58,42.805,6.029,CST-1368DR,8294,11607,15425,0.049,551